Content
SEND FEEDBACK

Daily
Averages
Monthly
Summary
United States of America

MARKSVILLE, LOUISIANA


Home > North America > United States > Louisiana
Elevation: 78 feet     Latitude: 31 05N     Longitude: 092 04W

WEATHER
 
SELECT A DAY
Number of Records: 216,066;   Date Range: 1/1/95 - 4/16/14
 
SHARE

PRINT THIS DATA

[ ← Previous Day ]
WEATHER ALMANAC - JANUARY 3, 2013
[ Next Day → ]
[ °C ]   °F
Weather ElementAverageHighLow
Temperature41.9 °F52 °F (1:53 pm)37 °F (6:53 am)
Dewpoint34.4 °F36 °F (3:53 am)30 °F (4:53 pm)
Humidity76.9 %93 % (5:49 am)45 % (1:53 pm)
Barometer30.36 in30.44 in (10:53 pm)30.30 in (1:39 am)
Wind Speed2.8 mph9.2 mph (11:32 am)
Wind Gust17.3 mph (10:53 am)
Weather ElementAverage
Visibility9.8 mi
Wind DirectionNE (46.7 °)

Weather ElementTotal
Precipitation---
Heating Degree Days20.5 (Base 65)
Averaged from 33 records on January 3, 2013
WEATHER CONDITIONS BREAKOUT
WIND DIRECTION BREAKOUT
WEATHER BY HOUR - JANUARY 3, 2013
[ °C ]   °F
Local TimeTemperatureDewpointHumidityBarometerVisibilityWind DirectionWind SpeedGust SpeedPrecipitationEventsConditions
1:39 AM39.2 °F35.6 °F87 %30.30 in10.0 miCalmScattered Clouds
1:53 AM39.0 °F35.1 °F86 %30.30 in10.0 miCalmClear
2:32 AM39.2 °F35.6 °F87 %30.30 in10.0 miCalmMostly Cloudy
2:53 AM39.0 °F35.1 °F86 %30.31 in10.0 miCalmMostly Cloudy
3:04 AM39.2 °F35.6 °F87 %30.31 in10.0 miCalmScattered Clouds
3:44 AM39.2 °F35.6 °F87 %30.31 in10.0 miCalmScattered Clouds
3:53 AM39.0 °F36.0 °F89 %30.32 in10.0 miCalmMostly Cloudy
4:53 AM39.0 °F36.0 °F89 %30.32 in10.0 miVariable3.5 mphOvercast
5:49 AM37.4 °F35.6 °F93 %30.32 in10.0 miNorth (360°)4.6 mphScattered Clouds
5:53 AM37.4 °F35.6 °F93 %30.32 in10.0 miVariable4.6 mphScattered Clouds
6:53 AM37.0 °F35.1 °F93 %30.34 in9.0 miCalmPartly Cloudy
7:07 AM37.4 °F35.6 °F93 %30.35 in9.0 miCalmMostly Cloudy
7:53 AM37.9 °F35.1 °F89 %30.37 in8.0 miNorth (360°)4.6 mphOvercast
8:29 AM37.4 °F35.6 °F93 %30.39 in8.0 miVariable3.5 mphScattered Clouds
8:51 AM39.2 °F35.6 °F87 %30.39 in9.0 miNE (40°)3.5 mphMostly Cloudy
8:53 AM39.0 °F35.1 °F86 %30.39 in9.0 miNE (40°)3.5 mphMostly Cloudy
9:23 AM39.2 °F33.8 °F81 %30.40 in10.0 miNorth (360°)6.9 mphScattered Clouds
9:53 AM42.1 °F34.0 °F73 %30.40 in10.0 miVariable6.9 mphPartly Cloudy
10:53 AM44.1 °F33.1 °F65 %30.41 in10.0 miNNE (20°)8.1 mph17.3 mphMostly Cloudy
11:32 AM46.4 °F33.8 °F62 %30.38 in10.0 miNNE (20°)9.2 mphPartly Cloudy
11:53 AM46.9 °F34.0 °F61 %30.37 in10.0 miVariable4.6 mphPartly Cloudy
12:53 PM48.9 °F33.1 °F54 %30.34 in10.0 miVariable4.6 mphClear
1:53 PM52.0 °F30.9 °F45 %30.32 in10.0 miVariable5.8 mphClear
2:53 PM52.0 °F30.9 °F45 %30.32 in10.0 miVariable6.9 mphClear
3:53 PM52.0 °F30.9 °F45 %30.34 in10.0 miNNW (340°)6.9 mphClear
4:53 PM48.0 °F30.0 °F50 %30.35 in10.0 miVariable4.6 mphClear
5:53 PM45.0 °F34.0 °F65 %30.38 in10.0 miCalmClear
6:53 PM44.1 °F35.1 °F71 %30.41 in10.0 miCalmClear
7:53 PM44.1 °F35.1 °F71 %30.40 in10.0 miCalmOvercast
8:53 PM43.0 °F36.0 °F76 %30.42 in10.0 miCalmPartly Cloudy
9:53 PM39.9 °F36.0 °F86 %30.43 in10.0 miCalmScattered Clouds
10:53 PM37.0 °F34.0 °F89 %30.44 in10.0 miCalmClear
11:53 PM41.0 °F33.1 °F73 %30.42 in10.0 miCalmClear
Hourly data recorded from KESF, located 25.46 miles away from Marksville, Louisiana







STORIES FROM OUR PARTNERS